Location: Bormida di Millesimo
(44.6667°N, 8.3333°E)
Time: 21:46:40
(UTC+00:00)

Daily predictions for brighter satellites

Satellite Brightness Start Highest point End
(mag) Time Altitude Azimuth Time Altitude Azimuth Time Altitude Azimuth
Cosmos 1975 3.5 19:35:07 10° NNW 19:39:06 59° W 19:43:02 10° S
STARLINK-1083 3.7 19:35:42 10° WNW 19:39:52 78° SW 19:43:59 10° SE
Cosmos 2297 4.4 19:34:53 10° SSE 19:39:57 35° ESE 19:45:04 10° NE
Abrixas rocket 2.4 19:37:09 10° WNW 19:40:04 56° NNE 19:42:58 10° E
STARLINK-1202 4.3 19:38:00 10° WSW 19:42:06 59° NNW 19:46:12 10° NE
Resurs 1-3 3.6 19:37:44 10° SSE 19:42:07 87° ENE 19:46:32 10° NNW
Cosmos 1544 3.9 19:38:57 10° NNW 19:42:29 51° W 19:45:58 10° S
Cosmos 1300 Rocket 3.8 19:38:51 10° N 19:43:14 56° ENE 19:47:35 10° SSE
STARLINK-1125 3.7 19:40:41 10° WNW 19:44:49 72° SW 19:48:55 10° SE
Cosmos 371 Rocket 3.3 19:40:04 10° SSW 19:44:53 75° ESE 19:49:47 10° NNE
EXPRESS MD2 3.1 19:42:37 10° SW 19:45:12 47° SE 19:49:35 10° ENE
Cosmos 2082 Rocket 2.3 19:40:04 10° NNW 19:45:50 76° ENE 19:51:31 10° SSE
Cosmos 1634 Rocket 4.2 19:41:15 10° N 19:47:37 86° W 19:53:58 10° S
STARLINK-1109 3.8 19:45:41 10° WNW 19:49:48 66° SW 19:53:54 10° SE
CZ-2C R/B 4.0 19:47:39 10° N 19:52:09 75° WNW 19:56:42 10° SSW
Terra 3.9 19:50:22 10° E 19:52:44 14° ENE 19:55:05 10° NNE
Cosmos 2369 Rocket 3.9 19:51:42 10° SE 19:54:38 14° E 19:57:33 10° ENE
STARLINK-1091 3.9 19:50:39 10° WNW 19:54:44 60° SW 19:58:43 11° SE
STARLINK-1097 4.5 19:52:59 10° NW 19:56:59 46° NNE 20:00:59 10° E
Cosmos 1741 Rocket 4.1 19:54:26 10° NNW 19:59:40 70° ENE 20:04:52 10° SSE
STARLINK-1072 4.0 19:55:41 10° WNW 19:59:45 55° SW 20:03:32 11° SE
NOSS 8 (H) 4.2 19:58:25 10° SSW 20:01:37 53° SE 20:04:35 10° NE
STARLINK-1099 4.4 19:57:57 10° NW 20:01:59 48° NNE 20:06:00 10° E
Cosmos 1674 Rocket 3.9 19:59:03 10° SSE 20:03:14 47° E 20:07:29 10° NNE
Aureole 2 Rocket 2.2 20:01:27 10° S 20:04:29 49° ESE 20:07:23 10° NNE
STARLINK-1096 4.1 20:00:40 10° WNW 20:04:41 50° SW 20:08:18 12° SSE
Cosmos 1378 Rocket 4.2 20:01:28 10° SSE 20:05:32 38° E 20:09:36 10° NNE
IGS 5A 4.2 20:02:19 11° SE 20:05:58 39° ENE 20:09:52 10° N
STARLINK-1104 4.3 20:02:55 10° NW 20:06:58 51° NNE 20:11:01 10° ESE
GPS 2-04 Rocket1 4.1 20:04:59 10° SW 20:07:27 18° S 20:09:17 13° SSE
Cosmos 1850 Rocket 4.1 20:03:14 10° NNW 20:08:38 86° ENE 20:13:52 11° SSE
Cosmos 1110 Rocket 4.3 20:04:40 10° S 20:09:35 46° ESE 20:14:31 10° NNE
STARLINK-1079 4.2 20:05:40 10° WNW 20:09:38 46° SW 20:13:05 13° SSE
Spot 2 Rocket 3.7 20:06:41 11° SSE 20:11:30 59° ENE 20:16:28 10° N
STARLINK-1144 4.2 20:07:54 10° NW 20:11:59 54° NNE 20:15:56 11° ESE
Cosmos 1461 3.0 20:08:15 10° SW 20:12:22 84° WNW 20:16:46 10° NNE
SPOT 3 Rocket 4.5 20:08:26 10° S 20:13:22 46° W 20:18:21 10° NNW
BREEZE-M DEB 2.8 20:11:20 10° SSW 20:13:23 32° SE 20:16:51 10° ENE
Cosmos 304 Rocket 3.7 20:09:11 10° S 20:13:54 67° ESE 20:18:40 10° NNE
Meteor 1-13 Rocket 4.3 20:08:52 10° S 20:14:30 86° W 20:20:18 10° N
STARLINK-1116 4.4 20:10:42 10° WNW 20:14:37 42° SW 20:17:53 14° SSE
Cosmos 1066 Rocket 4.4 20:09:33 10° SSE 20:14:43 50° E 20:19:53 10° NNE
MetOp-B 4.1 20:11:08 10° SSE 20:16:29 81° ENE 20:21:52 10° NNW
STARLINK-1103 4.0 20:12:51 10° NW 20:16:57 58° NNE 20:20:41 12° ESE
Cosmos 2278 Rocket 3.9 20:13:13 10° WSW 20:18:28 38° NW 20:23:47 10° NNE
SPOT 1/Viking Rocket 3.9 20:14:04 13° SE 20:18:29 50° ENE 20:23:27 10° N
STARLINK-1101 3.9 20:17:49 10° NW 20:21:57 62° NNE 20:25:28 14° ESE
STARLINK-60 4.0 20:20:22 10° SSW 20:22:59 24° SE 20:25:38 10° E
Cosmos 1805 4.3 20:20:24 10° N 20:23:56 31° ENE 20:26:16 17° SE
ATLAS 5 CENTAUR R/B 4.3 20:19:42 10° SSE 20:23:58 15° SE 20:24:10 15° SE
Cosmos 1331 Rocket 4.1 20:20:21 10° S 20:25:22 57° ESE 20:30:27 10° NNE
Cosmos 1975 Rocket 4.4 20:24:14 16° SE 20:26:28 23° E 20:29:55 10° NE
Lacrosse 5 3.1 20:22:22 10° WNW 20:26:52 33° SW 20:30:58 12° S
STARLINK-1102 3.8 20:22:48 10° NW 20:26:57 67° NNE 20:30:16 15° ESE
BREEZE M DEB (TANK) 2.8 20:21:29 10° WSW 20:28:19 87° SSE 20:30:55 10° ENE
ISS -1.9 20:26:29 10° W 20:29:05 21° SW 20:31:01 13° S
SL-4 R/B 4.0 20:28:58 10° W 20:29:46 11° WSW 20:30:33 10° WSW
STARLINK-1111 3.8 20:27:45 10° NW 20:31:54 71° NNE 20:35:01 17° ESE
NOSS 2-2 (D) 3.0 20:32:30 10° SSW 20:36:02 77° SE 20:39:56 10° NE
CENTAUR R/B 3.9 20:28:37 10° NNW 20:36:05 44° NE 20:44:10 10° ESE
BREEZE-M DEB (TANK) 4.2 20:19:27 10° WNW 20:36:17 81° NNE 20:40:35 14° ESE
deb Kosmos-1763 4.0 20:33:07 10° NNW 20:36:43 77° WSW 20:39:05 20° SSE
STARLINK-1073 3.7 20:32:46 10° NW 20:36:56 77° NNE 20:39:50 19° ESE
ATLAS 3B R/B 4.4 20:34:27 10° NNW 20:39:52 25° NNE 20:45:24 10° E
SL-4 R/B 2.8 20:35:48 10° SSW 20:40:08 37° SE 20:44:35 10° ENE
STARLINK-1121 3.6 20:37:43 10° NW 20:41:54 82° NE 20:44:36 21° ESE
Landsat 7 3.9 20:40:57 16° S 20:44:48 80° WSW 20:49:35 10° NNW
Cosmos 1242 Rocket 4.3 20:45:19 17° E 20:45:52 17° E 20:48:21 10° NE
STARLINK-1106 3.6 20:42:42 10° WNW 20:46:52 88° NE 20:49:23 23° ESE
Cosmos 1378 3.0 20:48:30 20° S 20:50:56 71° E 20:54:38 10° NNE
SL-27 R/B 3.7 20:48:10 10° N 20:51:22 30° ENE 20:52:48 22° ESE
STARLINK-1112 3.5 20:47:40 10° WNW 20:51:50 86° SSW 20:54:09 25° SE
Cosmos 1733 3.7 20:48:56 10° N 20:52:35 43° ENE 20:54:10 27° SE
Okean 1 Rocket 3.2 20:48:16 10° NNW 20:52:43 75° W 20:55:53 19° S
NOSS 2-2 (E) 3.9 20:49:37 10° SW 20:53:09 56° NW 20:57:08 10° NNE
NOSS 3-4 (A) 4.3 20:51:55 21° SE 20:54:07 26° ESE 20:59:06 10° ENE
USA 245 3.5 20:52:28 19° SSW 20:54:08 39° WSW 20:56:34 10° NNW
NOSS 3-4 (C) 4.3 20:52:05 21° SE 20:54:13 26° ESE 20:59:11 10° ENE
Resurs 01 Rocket 3.6 20:53:11 10° SSW 20:56:48 24° W 21:00:24 10° NW
STARLINK-1128 3.5 20:52:40 10° WNW 20:56:50 80° SW 20:58:57 28° SE
Cosmos 1455 Rocket 3.9 20:53:16 10° N 20:57:17 35° ENE 20:59:07 24° ESE
Nadezhda 4 Rocket 4.0 20:52:16 10° S 20:58:24 81° W 21:04:33 10° N
SeaSat 1 4.3 20:59:02 10° ENE 21:01:18 14° E 21:01:18 14° E
Cosmos 1271 Rocket 4.3 21:01:07 19° E 21:01:35 19° E 21:04:27 10° NE
STARLINK-1113 3.6 20:57:38 10° WNW 21:01:47 74° SW 21:03:43 30° SE
SPOT 5 3.1 21:02:42 24° SSE 21:06:01 84° ENE 21:11:25 10° NNW
STARLINK-1119 3.6 21:02:38 10° WNW 21:06:46 68° SW 21:08:31 32° SE
CARTOSAT-1 3.5 21:04:29 26° SSE 21:06:54 86° W 21:11:15 10° NNW
OPS 6432 4.5 21:05:46 10° NW 21:09:01 89° ENE 21:10:35 34° SE
SWAS 4.4 21:07:12 10° NNW 21:11:32 81° ENE 21:13:26 33° SSE
STARLINK-1114 3.7 21:07:37 10° WNW 21:11:43 62° SW 21:13:17 35° SSE
Cosmos 1707 4.3 21:11:45 19° E 21:12:05 20° E 21:14:56 10° NE
SL-8 R/B 3.7 21:08:28 10° WNW 21:13:14 64° SSW 21:15:26 31° SE
COSMOS 2455 3.9 21:12:54 22° ESE 21:14:01 24° ESE 21:18:41 10° NE
Abrixas rocket 3.1 21:12:49 10° W 21:15:18 29° SW 21:15:18 29° SW
STARLINK-1130 (DARKSAT) 3.8 21:12:38 10° WNW 21:16:43 57° SW 21:18:05 36° SSE
Cosmos 1943 Rocket 2.1 21:12:17 10° SSW 21:17:50 87° WNW 21:23:28 10° NNE
APEX 4.4 21:15:33 18° S 21:20:19 57° ESE 21:25:41 10° NE
STARLINK-1235 4.4 21:18:02 10° NW 21:21:05 34° NNE 21:22:52 19° ENE
Cosmos 1766 3.6 21:17:42 10° NNW 21:21:39 63° W 21:23:27 30° SSW
STARLINK-1084 3.9 21:17:37 10° WNW 21:21:40 52° SW 21:22:52 38° S
ATLAS 2AS CENTAUR R/B 3.2 21:15:11 14° S 21:21:54 51° ESE 21:29:32 10° NE
ERS-1 Rocket 3.3 21:19:33 23° S 21:22:36 60° W 21:27:36 10° NNW
ATLAS 3B CENTAUR R/B 4.0 21:14:44 10° WSW 21:24:52 26° SSW 21:27:06 23° S
NOSS 3-2 (A) 4.1 21:18:18 10° NW 21:25:55 80° SW 21:31:09 26° SSE
STARLINK-1098 4.0 21:22:36 10° WNW 21:26:36 48° SW 21:27:38 38° S
Cosmos 2082 Rocket 4.4 21:25:44 10° WNW 21:29:11 17° W 21:32:37 10° SW
Terra 1.8 21:27:35 32° S 21:29:49 80° WSW 21:34:37 10° NNW
STARLINK-1123 4.1 21:27:38 10° WNW 21:31:35 44° SW 21:32:25 38° S
STARLINK-1228 4.2 21:28:17 10° NW 21:31:40 43° NNE 21:33:15 25° E
Thor Agena Rocket 4.3 21:29:09 10° NNE 21:34:02 37° E 21:35:28 31° SE
Cosmos 1544 Rocket 3.6 21:29:58 10° N 21:34:17 62° E 21:35:36 41° SE
BREEZE-M DEB (TANK) 3.5 21:31:48 10° SW 21:35:06 71° SE 21:45:54 10° ENE
Cosmos 968 Rocket 3.6 21:30:20 10° NNW 21:35:28 64° ENE 21:37:33 35° SE
STARLINK-1097 4.2 21:32:39 10° WNW 21:36:33 40° SW 21:37:13 37° SSW
Cosmos 2369 Rocket 2.2 21:32:51 14° SSW 21:37:51 85° WNW 21:43:32 10° NNE
USA 238 DEB 4.0 21:31:12 10° NW 21:38:23 69° WSW 21:42:25 29° SSE
USA 238 3.9 21:31:17 10° NW 21:38:29 70° WSW 21:42:32 29° SSE
STARLINK-1099 4.3 21:37:40 10° WNW 21:41:30 37° SW 21:41:59 35° SSW
Cosmos 1092 Rocket 4.4 21:40:01 15° SSW 21:45:06 57° WNW 21:51:11 10° N
BREEZE-M DEB (TANK) 4.0 21:30:04 10° WSW 21:45:28 72° NNW 21:49:24 10° ENE
Cosmos 1656 Rocket 3.7 21:43:16 34° S 21:45:34 58° ESE 21:51:03 10° NNE
STARLINK-1104 4.5 21:42:41 10° WNW 21:46:27 34° SW 21:46:46 33° SW
STARLINK-1234 3.7 21:44:19 10° NW 21:47:40 53° NNE 21:48:27 41° ENE
STARLINK-1209 3.5 21:44:46 10° NW 21:48:04 55° NNE 21:48:41 46° ENE
RESURS DK-1 4.5 21:51:49 15° E 21:51:49 15° E 21:53:14 10° ENE
ALOS 2 4.3 21:51:14 19° E 21:52:40 22° ENE 21:56:02 10° NNE
Cosmos 1340 Rocket 3.8 21:52:02 10° N 21:55:47 34° ENE 21:56:25 32° E
STARLINK-60 4.0 21:55:52 10° WSW 21:58:56 46° NNW 22:02:02 10° NE
Cosmos 1503 Rocket 4.0 21:55:04 10° NNW 22:00:25 76° ENE 22:02:16 42° SE
Cosmos 1470 2.7 21:57:37 10° NNW 22:01:30 73° W 22:02:05 59° SSW
ATLAS CENTAUR R/B 1.4 22:01:17 57° SSE 22:01:47 62° ESE 22:05:55 10° NE
Spot 4 4.2 22:01:09 39° SE 22:02:37 56° ENE 22:07:21 10° N
Cosmos 1975 Rocket 4.5 22:01:21 17° SW 22:04:07 34° WNW 22:08:10 10° N
Cosmos 1953 2.6 22:01:41 10° N 22:05:36 52° ENE 22:06:00 50° ESE
In-Cosmos 22 4.2 22:12:05 44° SE 22:13:22 56° E 22:18:32 10° NNE
USA 215 4.1 22:09:11 10° E 22:15:24 48° NNE 22:21:37 10° NW
SL-4 R/B 3.8 22:17:36 12° NNE 22:17:36 12° NNE 22:17:55 10° NNE
Cosmos 1025 Rocket 3.1 22:15:55 51° SSW 22:16:54 72° W 22:21:12 10° N
SL-4 R/B 2.9 22:15:01 10° WSW 22:19:45 62° NNW 22:24:35 10° ENE
Cosmos 1354 Rocket 4.0 22:15:01 10° NNW 22:20:22 83° WSW 22:21:51 49° S
Cosmos 1242 Rocket 4.1 22:19:18 25° WSW 22:20:28 31° WNW 22:23:48 10° N
Cosmos 2292 Rocket 3.6 22:21:07 47° ENE 22:21:07 47° ENE 22:23:50 10° NNE
Cosmos 1758 3.8 22:17:05 10° NNW 22:21:02 50° W 22:21:40 45° SW
S3M 3.9 22:15:16 10° N 22:21:29 86° W 22:23:53 40° S
BREEZE-M R/B 4.4 22:12:38 10° SW 22:22:16 44° SSE 22:26:56 10° ENE
Meteor 2-19 Rocket 4.4 22:20:17 41° SSE 22:22:28 70° E 22:28:33 10° NNE
STARLINK-1212 3.8 22:22:26 10° NW 22:24:43 45° NW 22:24:43 45° NW
STARLINK-1105 3.9 22:22:56 10° NW 22:25:10 43° NW 22:25:10 43° NW
Cosmos 1174 3.6 22:26:49 66° NNE 22:26:49 66° NNE 22:30:05 10° NNE
STARLINK-1247 3.9 22:23:47 10° NW 22:26:02 44° NW 22:26:02 44° NW
CENTAUR R/B 3.3 22:19:15 10° NW 22:27:19 64° WSW 22:31:20 35° S
STARLINK-1227 3.9 22:24:17 10° NW 22:26:29 42° NW 22:26:29 42° NW
STARLINK-1226 4.0 22:25:09 10° NW 22:27:20 42° NW 22:27:20 42° NW
STARLINK-1215 4.0 22:26:03 10° NW 22:28:13 41° NW 22:28:13 41° NW
STARLINK-29 3.8 22:28:57 48° NW 22:29:14 50° NNW 22:32:23 10° NE
Cosmos 1674 3.4 22:30:25 42° ENE 22:30:25 42° ENE 22:33:41 10° NNE
STARLINK-1217 4.1 22:27:52 10° WNW 22:29:57 39° WNW 22:29:57 39° WNW
ATLAS 3B R/B 2.7 22:24:46 10° NW 22:31:37 79° NE 22:35:00 33° SE
STARLINK-1229 4.1 22:28:46 10° WNW 22:30:50 38° WNW 22:30:50 38° WNW
STARLINK-1270 4.1 22:29:40 10° WNW 22:31:44 37° WNW 22:31:44 37° WNW
COSMOS 2487 2.6 22:29:51 10° NNW 22:32:56 69° NNW 22:32:56 69° NNW
Cosmos 1553 Rocket 4.5 22:28:12 10° NNW 22:34:14 51° W 22:36:50 32° SSW
STARLINK-1189 4.2 22:31:28 10° WNW 22:33:25 35° WNW 22:33:25 35° WNW
STARLINK-1188 4.3 22:32:22 10° WNW 22:34:18 34° WNW 22:34:18 34° WNW
NOSS 3-2 (C) 4.5 22:28:49 10° NW 22:36:11 50° WSW 22:39:32 34° S
Cosmos 1271 Rocket 4.2 22:36:14 26° WSW 22:37:21 31° WNW 22:40:54 10° N
FALCON 9 DEB 3.8 22:38:18 49° NE 22:38:18 49° NE 22:40:57 10° NE
STARLINK-1187 4.5 22:34:39 10° WNW 22:36:25 30° WNW 22:36:25 30° WNW
STARLINK-1191 4.4 22:34:48 10° WNW 22:36:36 31° WNW 22:36:36 31° WNW
STARLINK-1221 4.5 22:35:44 10° WNW 22:37:29 30° WNW 22:37:29 30° WNW
SeaSat 1 2.4 22:34:34 10° NNE 22:39:32 85° WNW 22:41:05 45° SW
Cosmos 2228 3.4 22:36:32 10° N 22:40:40 50° ENE 22:41:02 48° E
STARLINK-1238 4.4 22:36:51 10° NW 22:40:54 49° NNE 22:42:38 29° E
Cosmos 1892 Rocket 4.5 22:42:26 34° E 22:42:34 34° E 22:46:32 10° NNE
Cosmos 921 Rocket 4.2 22:43:27 29° E 22:43:27 29° E 22:46:55 10° NE
NOSS 3-4 (A) 3.8 22:39:15 13° SW 22:44:29 60° NW 22:50:47 10° NNE
NOSS 3-4 (C) 3.8 22:39:25 14° SW 22:44:34 61° NW 22:50:54 10° NNE
Cosmos 1726 2.5 22:41:15 10° NNW 22:44:47 56° W 22:44:47 56° W
Cosmos 1726 Rocket 4.0 22:41:13 10° N 22:45:23 46° ENE 22:45:51 44° E
Meteor 2-15 4.4 22:39:24 10° N 22:45:34 90° ESE 22:47:33 46° S
STARLINK-1201 4.3 22:41:50 10° NW 22:45:54 52° NNE 22:47:24 33° E
Cosmos 1655 Rocket 4.3 22:43:51 32° SW 22:46:43 60° WNW 22:52:56 10° N
Cosmos 1867 3.8 22:41:31 10° NW 22:46:49 53° WSW 22:47:45 47° SSW
Cosmos 1707 4.1 22:46:54 27° W 22:47:45 30° WNW 22:51:14 10° NNW
Cosmos 2297 Rocket 3.9 22:43:02 10° N 22:47:48 27° NE 22:51:44 13° ESE
Cosmos 2098 Rocket 4.3 22:46:29 40° S 22:49:21 76° E 22:56:51 10° N
STARLINK-1206 4.2 22:46:48 10° NW 22:50:53 55° NNE 22:52:11 38° E
STARLINK-1378 4.3 22:56:19 39° ENE 22:56:19 39° ENE 22:58:52 10° ENE
Helios 1B rocket 4.4 22:52:22 10° NE 22:54:57 17° E 22:54:57 17° E
STARLINK-1205 4.1 22:51:46 10° NW 22:55:52 59° NNE 22:56:57 43° E
STARLINK-1379 4.2 22:59:54 42° ENE 22:59:54 42° ENE 23:02:35 10° ENE
SJ 16-02 3.7 22:56:14 10° NNE 22:59:14 17° ENE 23:01:35 12° E
COSMOS 2455 3.2 22:55:59 25° SW 22:59:28 63° NW 23:05:29 10° NNE
Cosmos 2266 Rocket 4.1 22:57:28 37° SW 22:59:49 63° W 23:05:50 10° N
ATLAS CENTAUR R/B 3.7 22:58:16 10° N 22:59:55 17° NE 23:02:18 10° E
STARLINK-1329 4.1 23:01:41 45° ENE 23:01:41 45° ENE 23:04:26 10° ENE
STARLINK-1218 3.9 22:56:44 10° NW 23:00:51 63° NNE 23:01:44 49° E
Meteor 1-16 Rocket 4.5 22:58:47 10° NNW 23:04:07 54° W 23:05:21 44° SW
STARLINK-1362 4.0 23:05:18 50° ENE 23:05:18 50° ENE 23:08:13 10° ENE
STARLINK-1254 3.8 23:01:44 10° NW 23:05:52 68° NNE 23:06:32 56° E
Meteor 2-15 Rocket 4.4 22:59:50 10° N 23:05:59 79° W 23:07:51 47° S
STARLINK-1373 3.8 23:08:56 55° ENE 23:08:56 55° ENE 23:12:00 10° ENE
CZ-4C R/B 3.7 23:08:30 19° ESE 23:08:30 19° ESE 23:11:58 10° ENE
Meteor 2-5 Rocket 3.6 23:08:38 53° S 23:09:56 77° E 23:15:35 10° NNE
SL-14 R/B 3.9 23:10:39 44° ENE 23:10:39 44° ENE 23:14:00 10° NNE
STARLINK-1365 3.7 23:11:18 63° NE 23:11:18 63° NE 23:14:35 10° ENE
STARLINK-1231 3.7 23:06:42 10° NW 23:10:51 73° NNE 23:11:19 64° E
Helios 1A 2.9 23:10:47 71° ESE 23:11:02 74° ENE 23:15:13 10° N
Lacrosse 4 Rocket 4.2 23:08:35 10° N 23:11:05 15° NE 23:13:32 10° ENE
STARLINK-1390 3.7 23:12:37 63° NE 23:12:37 63° NE 23:15:54 10° ENE
ATLAS 2AS CENTAUR R/B 3.9 23:05:21 10° WSW 23:13:02 49° NW 23:20:41 10° NNE
Cosmos 1626 2.7 23:14:06 48° ENE 23:14:06 48° ENE 23:17:16 10° NNE
STARLINK-1232 3.6 23:11:39 10° NW 23:15:49 78° NNE 23:16:04 74° ENE
Cosmos 1697 Rocket 4.4 23:16:53 18° ESE 23:17:41 18° E 23:21:26 10° ENE
Cosmos 1244 Rocket 4.5 23:16:19 47° SSE 23:18:10 73° E 23:24:19 10° NNE
STARLINK-1208 3.5 23:16:38 10° NW 23:20:47 84° NNE 23:20:50 83° NE
Cosmos 2227 Rocket 3.2 23:19:44 10° NNW 23:25:08 42° ENE 23:28:21 22° ESE
STARLINK-1271 3.5 23:21:37 10° WNW 23:25:38 83° NW 23:25:38 83° NW
Cosmos 1777 Rocket 4.1 23:20:45 10° NNW 23:25:55 61° WSW 23:26:42 54° SW
RESURS DK-1 3.0 23:27:41 45° W 23:28:18 49° WNW 23:32:21 10° NNE
Cosmos 1626 Rocket 4.4 23:28:25 36° E 23:28:40 36° E 23:32:40 10° NNE
ALOS 2 3.3 23:28:37 39° WSW 23:28:45 39° W 23:32:54 10° NNW
Cosmos 1908 4.2 23:26:05 10° NNW 23:29:17 36° W 23:29:17 36° W
Cosmos 2058 Rocket 2.9 23:26:10 10° N 23:30:38 90° N 23:30:59 76° S
STARLINK-1154 3.6 23:26:37 10° WNW 23:30:26 74° WNW 23:30:26 74° WNW
PSLV R/B 4.1 23:30:06 10° NNE 23:34:25 46° E 23:34:39 45° ESE
STARLINK-1197 3.7 23:31:35 10° WNW 23:35:12 64° W 23:35:12 64° W
Landsat 4 3.8 23:32:12 10° N 23:35:41 72° NW 23:35:41 72° NW
Cosmos 1606 Rocket 4.4 23:34:15 10° NNW 23:38:14 37° W 23:38:22 37° W
Meteor 2-21 4.5 23:38:36 45° SSW 23:40:35 75° W 23:46:49 10° N
STARLINK-1198 3.9 23:36:33 10° WNW 23:39:58 56° W 23:39:58 56° W
Timation 2 Rocket 4.0 23:34:41 10° NW 23:40:49 58° WSW 23:42:11 47° SSW
ATLAS CENTAUR R/B 3.8 23:37:50 10° W 23:41:01 20° NW 23:44:04 10° N
Cosmos 2084 4.4 23:41:05 33° W 23:42:37 46° NW 23:46:56 10° NNE
STARLINK-1338 4.0 23:42:36 49° WNW 23:43:08 54° NNW 23:46:50 10° NE
SL-08 R/B 4.5 23:41:30 46° S 23:43:33 81° E 23:49:55 10° N
STARLINK-1199 4.1 23:41:35 10° WNW 23:44:47 49° W 23:44:47 49° W
STARLINK-1371 4.2 23:49:17 40° WNW 23:50:06 49° NNW 23:53:47 10° NE
STARLINK-1210 4.3 23:46:33 10° WNW 23:49:33 43° W 23:49:33 43° W
Cosmos 1300 2.9 23:49:09 10° NNW 23:52:37 60° WNW 23:52:37 60° WNW
STARLINK-1341 4.3 23:52:42 37° WNW 23:53:40 47° NNW 23:57:21 10° NE
Cosmos 1812 Rocket 4.2 23:50:41 10° N 23:55:00 47° ENE 23:55:57 40° ESE
STARLINK-1219 4.5 23:51:31 10° WNW 23:54:17 38° W 23:54:17 38° W
